Private Wetterstation Wechselburg
Wetterdaten: Dienstag, 05.03.2013
Datum Zeit Temp. +2m Bodentemp. Temp.+5cm Temp. Wind Windchill X Diff Temp. Feuchte +2m Feuchte +5cm Sonnenschein Luftdruck Regen Wind Richtung Richtung Sonnenschein UV Taupunkt Windchill Windben
05.03.2013 00:00 -2,1 C 9,0 C -2,5 C -2,5 C -3,3 C 0,0 C 83 % 88 % 0 % 1020,4 hPa 0,0 l/m 0,0 km/h (0 Bft) NW 315 0 min 0,0 UV-I -4,6 C -3,3 C 0,0 km/h (0 Bft)
05.03.2013 00:05 -2,3 C 9,0 C -2,5 C -2,6 C -3,2 C 0,0 C 83 % 88 % 0 % 1020,4 hPa 0,0 l/m 0,2 km/h (0 Bft) O-SO 112 0 min 0,0 UV-I -4,8 C -3,2 C 0,0 km/h (0 Bft)
05.03.2013 00:10 -2,3 C 9,0 C -2,5 C -2,6 C -3,2 C 0,0 C 84 % 88 % 0 % 1020,4 hPa 0,0 l/m 0,2 km/h (0 Bft) SW 225 0 min 0,0 UV-I -4,6 C -3,2 C 0,0 km/h (0 Bft)
05.03.2013 00:15 -2,4 C 9,0 C -2,5 C -2,7 C -3,3 C 0,0 C 84 % 88 % 0 % 1020,4 hPa 0,0 l/m 0,0 km/h (0 Bft) W-SW 247 0 min 0,0 UV-I -4,7 C -3,3 C 0,0 km/h (0 Bft)
05.03.2013 00:20 -2,5 C 9,0 C -2,6 C -2,8 C -3,4 C 0,0 C 84 % 88 % 0 % 1020,3 hPa 0,0 l/m 0,0 km/h (0 Bft) W-SW 247 0 min 0,0 UV-I -4,8 C -3,4 C 0,0 km/h (0 Bft)
05.03.2013 00:25 -2,5 C 9,0 C -2,6 C -2,8 C -3,5 C 0,0 C 84 % 88 % 0 % 1020,3 hPa 0,0 l/m 0,0 km/h (0 Bft) W-SW 247 0 min 0,0 UV-I -4,8 C -3,5 C 0,0 km/h (0 Bft)
05.03.2013 00:30 -2,5 C 9,0 C -2,5 C -2,8 C -3,5 C 0,0 C 84 % 88 % 0 % 1020,3 hPa 0,0 l/m 0,0 km/h (0 Bft) S-SO 157 0 min 0,0 UV-I -4,8 C -3,5 C 0,0 km/h (0 Bft)
05.03.2013 00:35 -2,7 C 9,0 C -2,8 C -3,0 C -3,6 C 0,0 C 85 % 88 % 0 % 1020,3 hPa 0,0 l/m 0,0 km/h (0 Bft) SW 225 0 min 0,0 UV-I -4,9 C -3,6 C 0,0 km/h (0 Bft)
05.03.2013 00:41 -2,7 C 9,0 C -2,9 C -3,0 C -3,5 C 0,0 C 85 % 88 % 0 % 1020,5 hPa 0,0 l/m 0,0 km/h (0 Bft) N 0 0 min 0,0 UV-I -4,9 C -3,5 C 0,0 km/h (0 Bft)
05.03.2013 01:00 -2,8 C 8,9 C -2,5 C -2,9 C -3,2 C 0,0 C 86 % 89 % 0 % 1020,1 hPa 0,0 l/m 0,8 km/h (0 Bft) N 360 0 min 0,0 UV-I -4,8 C -3,2 C 0,0 km/h (0 Bft)
05.03.2013 01:05 -2,8 C 8,9 C -2,7 C -2,9 C -3,2 C 0,0 C 86 % 89 % 0 % 1020,1 hPa 0,0 l/m 0,5 km/h (0 Bft) N-NO 22 0 min 0,0 UV-I -4,8 C -3,2 C 0,0 km/h (0 Bft)
05.03.2013 01:10 -2,9 C 8,9 C -2,7 C -3,0 C -3,2 C 0,0 C 86 % 89 % 0 % 1020,1 hPa 0,0 l/m 0,0 km/h (0 Bft) NO 45 0 min 0,0 UV-I -4,9 C -3,2 C 0,0 km/h (0 Bft)
05.03.2013 01:15 -2,9 C 8,9 C -2,7 C -3,0 C -3,1 C 0,0 C 86 % 89 % 0 % 1020,1 hPa 0,0 l/m 0,0 km/h (0 Bft) W-SW 247 0 min 0,0 UV-I -4,9 C -3,1 C 0,0 km/h (0 Bft)
05.03.2013 01:20 -2,9 C 8,9 C -2,8 C -3,0 C -3,1 C 0,0 C 86 % 89 % 0 % 1019,9 hPa 0,0 l/m 0,0 km/h (0 Bft) O 90 0 min 0,0 UV-I -4,9 C -3,1 C 0,0 km/h (0 Bft)
05.03.2013 01:25 -2,7 C 8,9 C -2,9 C -2,8 C -2,9 C 0,0 C 86 % 89 % 0 % 1019,9 hPa 0,0 l/m 0,0 km/h (0 Bft) O-NO 67 0 min 0,0 UV-I -4,7 C -2,9 C 0,0 km/h (0 Bft)
05.03.2013 01:30 -2,6 C 8,9 C -2,8 C -2,6 C -2,6 C 0,0 C 86 % 89 % 0 % 1019,9 hPa 0,0 l/m 0,0 km/h (0 Bft) O-NO 67 0 min 0,0 UV-I -4,6 C -2,6 C 0,0 km/h (0 Bft)
05.03.2013 01:35 -2,5 C 8,9 C -2,7 C -2,6 C -2,7 C 0,0 C 86 % 89 % 0 % 1019,9 hPa 0,0 l/m 0,0 km/h (0 Bft) W-SW 247 0 min 0,0 UV-I -4,5 C -2,7 C 0,0 km/h (0 Bft)
05.03.2013 01:40 -2,5 C 8,8 C -2,8 C -2,6 C -2,9 C 0,0 C 86 % 89 % 0 % 1019,5 hPa 0,0 l/m 0,0 km/h (0 Bft) O-NO 67 0 min 0,0 UV-I -4,5 C -2,9 C 0,0 km/h (0 Bft)
05.03.2013 01:45 -2,5 C 8,8 C -2,9 C -2,6 C -2,7 C 0,0 C 86 % 89 % 0 % 1019,5 hPa 0,0 l/m 0,0 km/h (0 Bft) O-NO 67 0 min 0,0 UV-I -4,5 C -2,7 C 0,0 km/h (0 Bft)
05.03.2013 01:50 -2,5 C 8,8 C -2,8 C -2,5 C -2,6 C 0,0 C 86 % 89 % 0 % 1019,5 hPa 0,0 l/m 0,0 km/h (0 Bft) SW 225 0 min 0,0 UV-I -4,5 C -2,6 C 0,0 km/h (0 Bft)
05.03.2013 01:55 -2,5 C 8,8 C -2,8 C -2,6 C -2,8 C 0,0 C 86 % 89 % 0 % 1019,5 hPa 0,0 l/m 0,0 km/h (0 Bft) NO 45 0 min 0,0 UV-I -4,5 C -2,8 C 0,0 km/h (0 Bft)
05.03.2013 02:00 -2,7 C 8,7 C -2,7 C -2,8 C -2,9 C 0,0 C 85 % 89 % 0 % 1019,5 hPa 0,0 l/m 0,0 km/h (0 Bft) O-NO 67 0 min 0,0 UV-I -4,9 C -2,9 C 0,0 km/h (0 Bft)
05.03.2013 02:05 -2,7 C 8,7 C -2,9 C -2,7 C -2,8 C 0,0 C 85 % 89 % 0 % 1019,5 hPa 0,0 l/m 0,0 km/h (0 Bft) O 90 0 min 0,0 UV-I -4,9 C -2,8 C 2,7 km/h (1 Bft)
05.03.2013 02:10 -2,5 C 8,7 C -2,9 C -2,5 C -2,5 C 0,0 C 86 % 89 % 0 % 1019,5 hPa 0,0 l/m 0,8 km/h (0 Bft) O 90 0 min 0,0 UV-I -4,5 C -2,5 C 2,3 km/h (1 Bft)
05.03.2013 02:15 -2,3 C 8,8 C -2,8 C -2,1 C -2,1 C 0,2 C 85 % 89 % 0 % 1019,5 hPa 0,0 l/m 1,0 km/h (0 Bft) W-SW 247 0 min 0,0 UV-I -4,5 C -2,1 C 3,1 km/h (1 Bft)
05.03.2013 02:20 -2,5 C 8,8 C -2,7 C -2,5 C -2,6 C 0,0 C 85 % 89 % 0 % 1019,0 hPa 0,0 l/m 0,5 km/h (0 Bft) W-NW 292 0 min 0,0 UV-I -4,7 C -2,6 C 0,0 km/h (0 Bft)
05.03.2013 02:25 -2,5 C 8,8 C -2,8 C -2,6 C -2,9 C 0,0 C 85 % 89 % 0 % 1019,0 hPa 0,0 l/m 0,2 km/h (0 Bft) W 270 0 min 0,0 UV-I -4,7 C -2,9 C 3,2 km/h (1 Bft)
05.03.2013 02:30 -2,5 C 8,8 C -2,8 C -2,7 C -3,0 C 0,0 C 85 % 89 % 0 % 1019,0 hPa 0,0 l/m 0,3 km/h (0 Bft) W-SW 247 0 min 0,0 UV-I -4,7 C -3,0 C 0,0 km/h (0 Bft)
05.03.2013 02:35 -2,7 C 8,8 C -2,9 C -2,8 C -3,1 C 0,0 C 85 % 89 % 0 % 1019,0 hPa 0,0 l/m 0,5 km/h (0 Bft) N 360 0 min 0,0 UV-I -4,9 C -3,1 C 0,0 km/h (0 Bft)
05.03.2013 02:40 -2,7 C 8,8 C -3,0 C -2,8 C -2,9 C 0,0 C 86 % 89 % 0 % 1018,4 hPa 0,0 l/m 0,2 km/h (0 Bft) O-NO 67 0 min 0,0 UV-I -4,7 C -2,9 C 0,0 km/h (0 Bft)
05.03.2013 02:45 -2,8 C 8,7 C -2,9 C -2,3 C -2,3 C 0,5 C 86 % 89 % 0 % 1018,4 hPa 0,0 l/m 0,2 km/h (0 Bft) NO 45 0 min 0,0 UV-I -4,8 C -2,3 C 0,0 km/h (0 Bft)
05.03.2013 02:50 -2,7 C 8,6 C -2,8 C -2,3 C -2,3 C 0,4 C 86 % 89 % 0 % 1018,4 hPa 0,0 l/m 0,3 km/h (0 Bft) S 180 0 min 0,0 UV-I -4,7 C -2,3 C 0,0 km/h (0 Bft)
05.03.2013 02:55 -2,7 C 8,7 C -2,7 C -2,4 C -2,4 C 0,3 C 86 % 89 % 0 % 1018,4 hPa 0,0 l/m 0,3 km/h (0 Bft) W 270 0 min 0,0 UV-I -4,7 C -2,4 C 2,4 km/h (1 Bft)
05.03.2013 03:00 -2,7 C 8,7 C -2,9 C -2,7 C -2,8 C 0,0 C 86 % 89 % 0 % 1018,2 hPa 0,0 l/m 0,3 km/h (0 Bft) N 360 0 min 0,0 UV-I -4,7 C -2,8 C 0,0 km/h (0 Bft)
05.03.2013 03:05 -2,8 C 8,7 C -2,9 C -2,8 C -2,8 C 0,0 C 86 % 89 % 0 % 1018,2 hPa 0,0 l/m 0,2 km/h (0 Bft) N-NO 22 0 min 0,0 UV-I -4,8 C -2,8 C 0,0 km/h (0 Bft)
05.03.2013 03:10 -2,8 C 8,6 C -2,9 C -2,5 C -2,5 C 0,3 C 86 % 89 % 0 % 1018,2 hPa 0,0 l/m 0,0 km/h (0 Bft) NO 45 0 min 0,0 UV-I -4,8 C -2,5 C 0,0 km/h (0 Bft)
05.03.2013 03:15 -2,7 C 8,5 C -2,9 C -2,3 C -2,3 C 0,4 C 86 % 89 % 0 % 1018,2 hPa 0,0 l/m 0,0 km/h (0 Bft) O-NO 67 0 min 0,0 UV-I -4,7 C -2,3 C 0,0 km/h (0 Bft)
05.03.2013 03:20 -2,5 C 8,5 C -2,7 C -2,0 C -2,0 C 0,5 C 85 % 89 % 0 % 1018,1 hPa 0,0 l/m 0,0 km/h (0 Bft) N-NW 337 0 min 0,0 UV-I -4,7 C -2,0 C 0,0 km/h (0 Bft)
05.03.2013 03:25 -2,5 C 8,5 C -2,5 C -2,0 C -2,0 C 0,5 C 85 % 89 % 0 % 1018,1 hPa 0,0 l/m 0,0 km/h (0 Bft) W 270 0 min 0,0 UV-I -4,7 C -2,0 C 0,0 km/h (0 Bft)
05.03.2013 03:30 -2,5 C 8,5 C -2,7 C -2,2 C -2,2 C 0,3 C 85 % 89 % 0 % 1018,1 hPa 0,0 l/m 0,2 km/h (0 Bft) NO 45 0 min 0,0 UV-I -4,7 C -2,2 C 1,6 km/h (1 Bft)
05.03.2013 03:35 -2,3 C 8,4 C -2,7 C -1,8 C -1,8 C 0,5 C 85 % 89 % 0 % 1018,1 hPa 0,0 l/m 0,3 km/h (0 Bft) NO 45 0 min 0,0 UV-I -4,5 C -1,8 C 1,8 km/h (1 Bft)
05.03.2013 03:40 -2,0 C 8,4 C -2,5 C -1,3 C -1,3 C 0,7 C 85 % 89 % 0 % 1017,9 hPa 0,0 l/m 0,3 km/h (0 Bft) O-SO 112 0 min 0,0 UV-I -4,2 C -1,3 C 1,6 km/h (1 Bft)
05.03.2013 03:45 -1,9 C 8,5 C -2,6 C -1,5 C -1,5 C 0,4 C 84 % 89 % 0 % 1017,9 hPa 0,0 l/m 0,2 km/h (0 Bft) N-NO 22 0 min 0,0 UV-I -4,2 C -1,5 C 0,0 km/h (0 Bft)
05.03.2013 03:50 -1,9 C 8,4 C -2,7 C -1,7 C -1,7 C 0,2 C 84 % 89 % 0 % 1017,9 hPa 0,0 l/m 0,3 km/h (0 Bft) NO 45 0 min 0,0 UV-I -4,2 C -1,7 C 2,3 km/h (1 Bft)
05.03.2013 03:55 -1,7 C 8,4 C -2,5 C -1,4 C -1,4 C 0,3 C 84 % 89 % 0 % 1017,9 hPa 0,0 l/m 0,3 km/h (0 Bft) N-NO 22 0 min 0,0 UV-I -4,0 C -1,4 C 0,0 km/h (0 Bft)
05.03.2013 04:00 -1,7 C 8,4 C -2,5 C -1,5 C -1,5 C 0,2 C 83 % 89 % 0 % 1017,6 hPa 0,0 l/m 0,2 km/h (0 Bft) O-NO 67 0 min 0,0 UV-I -4,2 C -1,5 C 0,0 km/h (0 Bft)
05.03.2013 04:05 -1,7 C 8,4 C -2,6 C -1,4 C -1,4 C 0,3 C 83 % 89 % 0 % 1017,6 hPa 0,0 l/m 0,2 km/h (0 Bft) W-SW 247 0 min 0,0 UV-I -4,2 C -1,4 C 0,0 km/h (0 Bft)
05.03.2013 04:10 -1,7 C 8,4 C -2,5 C -1,7 C -1,7 C 0,0 C 83 % 89 % 0 % 1017,6 hPa 0,0 l/m 0,2 km/h (0 Bft) N-NW 337 0 min 0,0 UV-I -4,2 C -1,7 C 0,0 km/h (0 Bft)
05.03.2013 04:15 -1,7 C 8,4 C -2,7 C -1,8 C -1,9 C 0,0 C 83 % 89 % 0 % 1017,6 hPa 0,0 l/m 0,0 km/h (0 Bft) NW 315 0 min 0,0 UV-I -4,2 C -1,9 C 0,0 km/h (0 Bft)
05.03.2013 04:20 -1,7 C 8,4 C -2,5 C -1,8 C -2,1 C 0,0 C 83 % 89 % 0 % 1017,9 hPa 0,0 l/m 0,0 km/h (0 Bft) NW 315 0 min 0,0 UV-I -4,2 C -2,1 C 0,0 km/h (0 Bft)
05.03.2013 04:25 -1,8 C 8,2 C -2,7 C -1,9 C -2,1 C 0,0 C 83 % 89 % 0 % 1017,9 hPa 0,0 l/m 0,0 km/h (0 Bft) W-NW 292 0 min 0,0 UV-I -4,3 C -2,1 C 0,0 km/h (0 Bft)
05.03.2013 04:30 -1,7 C 8,2 C -2,7 C -1,8 C -2,0 C 0,0 C 83 % 89 % 0 % 1017,9 hPa 0,0 l/m 0,0 km/h (0 Bft) O-NO 67 0 min 0,0 UV-I -4,2 C -2,0 C 0,0 km/h (0 Bft)
05.03.2013 04:35 -1,3 C 8,2 C -2,7 C -1,4 C -1,7 C 0,0 C 83 % 89 % 0 % 1017,9 hPa 0,0 l/m 0,0 km/h (0 Bft) O-NO 67 0 min 0,0 UV-I -3,8 C -1,7 C 1,9 km/h (1 Bft)
05.03.2013 04:40 -1,3 C 8,2 C -2,5 C -1,3 C -1,3 C 0,0 C 82 % 89 % 0 % 1017,8 hPa 0,0 l/m 0,3 km/h (0 Bft) W-NW 292 0 min 0,0 UV-I -4,0 C -1,3 C 0,0 km/h (0 Bft)
05.03.2013 04:45 -1,6 C 8,4 C -2,7 C -1,6 C -1,7 C 0,0 C 82 % 89 % 0 % 1017,8 hPa 0,0 l/m 0,3 km/h (0 Bft) NW 315 0 min 0,0 UV-I -4,3 C -1,7 C 0,0 km/h (0 Bft)
05.03.2013 04:50 -1,7 C 8,4 C -2,8 C -1,8 C -2,1 C 0,0 C 82 % 89 % 0 % 1017,8 hPa 0,0 l/m 0,2 km/h (0 Bft) O-NO 67 0 min 0,0 UV-I -4,4 C -2,1 C 0,0 km/h (0 Bft)
05.03.2013 04:55 -1,8 C 8,4 C -2,9 C -1,9 C -2,2 C 0,0 C 82 % 89 % 0 % 1017,8 hPa 0,0 l/m 0,0 km/h (0 Bft) O-NO 67 0 min 0,0 UV-I -4,5 C -2,2 C 0,0 km/h (0 Bft)
05.03.2013 05:00 -1,7 C 8,2 C -2,8 C -1,7 C -1,8 C 0,0 C 82 % 89 % 0 % 1017,5 hPa 0,0 l/m 0,2 km/h (0 Bft) O-SO 112 0 min 0,0 UV-I -4,4 C -1,8 C 0,0 km/h (0 Bft)
05.03.2013 05:05 -1,7 C 8,2 C -2,7 C -1,8 C -2,0 C 0,0 C 82 % 89 % 0 % 1017,5 hPa 0,0 l/m 0,3 km/h (0 Bft) SW 225 0 min 0,0 UV-I -4,4 C -2,0 C 0,0 km/h (0 Bft)
05.03.2013 05:10 -1,9 C 8,2 C -2,8 C -2,0 C -2,2 C 0,0 C 83 % 89 % 0 % 1017,5 hPa 0,0 l/m 0,5 km/h (0 Bft) W 270 0 min 0,0 UV-I -4,4 C -2,2 C 0,0 km/h (0 Bft)
05.03.2013 05:15 -2,1 C 8,4 C -2,9 C -2,3 C -2,6 C 0,0 C 83 % 89 % 0 % 1017,5 hPa 0,0 l/m 0,5 km/h (0 Bft) W-NW 292 0 min 0,0 UV-I -4,6 C -2,6 C 0,0 km/h (0 Bft)
05.03.2013 05:20 -2,1 C 8,4 C -2,8 C -2,3 C -2,8 C 0,0 C 83 % 89 % 0 % 1016,9 hPa 0,0 l/m 0,2 km/h (0 Bft) W-NW 292 0 min 0,0 UV-I -4,6 C -2,8 C 1,8 km/h (1 Bft)
05.03.2013 05:25 -1,9 C 8,4 C -2,5 C -2,1 C -2,6 C 0,0 C 83 % 89 % 0 % 1016,9 hPa 0,0 l/m 0,5 km/h (0 Bft) W-NW 292 0 min 0,0 UV-I -4,4 C -2,6 C 2,3 km/h (1 Bft)
05.03.2013 05:30 -1,7 C 8,4 C -2,5 C -1,9 C -2,4 C 0,0 C 83 % 89 % 0 % 1016,9 hPa 0,0 l/m 0,5 km/h (0 Bft) SW 225 0 min 0,0 UV-I -4,2 C -2,4 C 2,1 km/h (1 Bft)
05.03.2013 05:35 -1,5 C 8,4 C -2,5 C -1,8 C -2,4 C 0,0 C 82 % 89 % 0 % 1016,9 hPa 0,0 l/m 0,6 km/h (0 Bft) NW 315 0 min 0,0 UV-I -4,2 C -2,4 C 1,8 km/h (1 Bft)
05.03.2013 05:40 -1,3 C 8,4 C -2,5 C -1,6 C -2,2 C 0,0 C 82 % 89 % 0 % 1017,2 hPa 0,0 l/m 0,6 km/h (0 Bft) NW 315 0 min 0,0 UV-I -4,0 C -2,2 C 0,0 km/h (0 Bft)
05.03.2013 05:45 -1,3 C 8,4 C -2,4 C -1,6 C -2,2 C 0,0 C 82 % 89 % 0 % 1017,2 hPa 0,0 l/m 0,2 km/h (0 Bft) W-SW 247 0 min 0,0 UV-I -4,0 C -2,2 C 1,9 km/h (1 Bft)
05.03.2013 05:50 -1,3 C 8,4 C -2,3 C -1,6 C -2,2 C 0,0 C 81 % 89 % 0 % 1017,2 hPa 0,0 l/m 1,0 km/h (0 Bft) W 270 0 min 0,0 UV-I -4,1 C -2,2 C 4,8 km/h (1 Bft)
05.03.2013 05:55 -1,1 C 8,4 C -2,2 C -1,3 C -1,8 C 0,0 C 81 % 89 % 0 % 1017,2 hPa 0,0 l/m 1,9 km/h (1 Bft) W 270 0 min 0,0 UV-I -3,9 C -1,8 C 3,2 km/h (1 Bft)
05.03.2013 06:00 -1,3 C 8,4 C -2,3 C -1,5 C -1,9 C 0,0 C 81 % 89 % 0 % 1016,8 hPa 0,0 l/m 2,4 km/h (1 Bft) SW 225 0 min 0,0 UV-I -4,1 C -1,9 C 0,0 km/h (0 Bft)
05.03.2013 06:05 -1,5 C 8,4 C -2,5 C -1,7 C -2,1 C 0,0 C 81 % 88 % 0 % 1016,8 hPa 0,0 l/m 1,3 km/h (1 Bft) NO 45 0 min 0,0 UV-I -4,3 C -2,1 C 0,0 km/h (0 Bft)
05.03.2013 06:10 -1,7 C 8,4 C -2,7 C -1,9 C -2,2 C 0,0 C 81 % 88 % 0 % 1016,8 hPa 0,0 l/m 0,2 km/h (0 Bft) N 360 0 min 0,0 UV-I -4,5 C -2,2 C 0,0 km/h (0 Bft)
05.03.2013 06:15 -1,6 C 8,1 C -2,5 C -1,8 C -2,2 C 0,0 C 81 % 88 % 0 % 1016,8 hPa 0,0 l/m 0,2 km/h (0 Bft) N 360 0 min 0,0 UV-I -4,4 C -2,2 C 0,0 km/h (0 Bft)
05.03.2013 06:20 -1,3 C 8,1 C -2,4 C -1,5 C -1,9 C 0,0 C 81 % 88 % 0 % 1017,1 hPa 0,0 l/m 0,3 km/h (0 Bft) NW 315 0 min 0,0 UV-I -4,1 C -1,9 C 0,0 km/h (0 Bft)
05.03.2013 06:25 -1,3 C 8,1 C -2,5 C -1,5 C -1,9 C 0,0 C 81 % 88 % 0 % 1017,1 hPa 0,0 l/m 0,2 km/h (0 Bft) O-NO 67 0 min 0,0 UV-I -4,1 C -1,9 C 0,0 km/h (0 Bft)
05.03.2013 06:30 -1,3 C 8,1 C -2,5 C -1,5 C -2,0 C 0,0 C 81 % 88 % 0 % 1017,1 hPa 0,0 l/m 0,0 km/h (0 Bft) N-NO 22 0 min 0,0 UV-I -4,1 C -2,0 C 0,0 km/h (0 Bft)
05.03.2013 06:35 -1,3 C 8,1 C -2,5 C -1,6 C -2,2 C 0,0 C 81 % 88 % 0 % 1017,1 hPa 0,0 l/m 0,0 km/h (0 Bft) W 270 0 min 0,0 UV-I -4,1 C -2,2 C 0,0 km/h (0 Bft)
05.03.2013 06:46 -1,6 C 8,1 C -2,8 C -1,8 C -2,3 C 0,0 C 80 % 88 % 0 % 1017,1 hPa 0,0 l/m 0,0 km/h (0 Bft) N 0 0 min 0,0 UV-I -4,6 C -2,3 C 0,0 km/h (0 Bft)
05.03.2013 07:00 -1,7 C 8,1 C -2,9 C -1,9 C -2,4 C 0,0 C 80 % 88 % 0 % 1017,1 hPa 0,0 l/m 0,0 km/h (0 Bft) N-NW 337 0 min 0,0 UV-I -4,7 C -2,4 C 0,0 km/h (0 Bft)
05.03.2013 07:05 -1,7 C 8,1 C -2,9 C -2,0 C -2,5 C 0,0 C 81 % 88 % 0 % 1017,1 hPa 0,0 l/m 0,0 km/h (0 Bft) NW 315 0 min 0,0 UV-I -4,5 C -2,5 C 0,0 km/h (0 Bft)
05.03.2013 07:10 -1,7 C 8,1 C -2,7 C -1,7 C -1,8 C 0,0 C 81 % 88 % 0 % 1017,1 hPa 0,0 l/m 0,0 km/h (0 Bft) N-NW 337 0 min 0,0 UV-I -4,5 C -1,8 C 0,0 km/h (0 Bft)
05.03.2013 07:15 -1,5 C 8,1 C -2,5 C -0,7 C -0,7 C 0,8 C 81 % 88 % 21 % 1017,1 hPa 0,0 l/m 0,2 km/h (0 Bft) W-SW 247 5 min 0,0 UV-I -4,3 C -0,7 C 0,0 km/h (0 Bft)
05.03.2013 07:20 -1,4 C 8,1 C -2,5 C 1,0 C 1,0 C 2,4 C 82 % 88 % 63 % 1016,6 hPa 0,0 l/m 0,2 km/h (0 Bft) W-SW 247 5 min 0,0 UV-I -4,1 C 1,0 C 0,0 km/h (0 Bft)
05.03.2013 07:25 -0,9 C 8,1 C -2,5 C 2,1 C 2,1 C 3,0 C 81 % 88 % 79 % 1016,6 hPa 0,0 l/m 0,0 km/h (0 Bft) W-SW 247 5 min 0,0 UV-I -3,7 C 2,1 C 0,0 km/h (0 Bft)
05.03.2013 07:30 -1,0 C 8,1 C -2,6 C 2,2 C 2,2 C 3,2 C 81 % 88 % 84 % 1016,6 hPa 0,0 l/m 0,0 km/h (0 Bft) W 270 5 min 0,0 UV-I -3,8 C 2,2 C 0,0 km/h (0 Bft)
05.03.2013 07:35 -1,2 C 8,1 C -2,4 C 1,9 C 1,9 C 3,1 C 80 % 88 % 82 % 1016,6 hPa 0,0 l/m 0,6 km/h (0 Bft) SW 225 5 min 0,0 UV-I -4,2 C 1,9 C 2,6 km/h (1 Bft)
05.03.2013 07:40 -1,3 C 8,1 C -2,3 C 1,0 C 1,0 C 2,3 C 81 % 88 % 61 % 1016,9 hPa 0,0 l/m 0,6 km/h (0 Bft) W-SW 247 5 min 0,0 UV-I -4,1 C 1,0 C 0,0 km/h (0 Bft)
05.03.2013 07:45 -1,1 C 8,1 C -2,3 C 1,6 C 1,6 C 2,7 C 81 % 88 % 71 % 1016,9 hPa 0,0 l/m 0,0 km/h (0 Bft) W-SW 247 5 min 0,0 UV-I -3,9 C 1,6 C 0,0 km/h (0 Bft)
05.03.2013 07:50 -1,3 C 8,0 C -2,3 C 2,6 C 2,6 C 3,9 C 81 % 88 % 100 % 1016,9 hPa 0,0 l/m 0,0 km/h (0 Bft) S-SW 202 5 min 0,0 UV-I -4,1 C 2,6 C 0,0 km/h (0 Bft)
05.03.2013 07:55 -1,2 C 8,1 C -2,1 C 3,1 C 3,1 C 4,3 C 81 % 88 % 100 % 1016,9 hPa 0,0 l/m 0,0 km/h (0 Bft) S-SW 202 5 min 0,0 UV-I -4,0 C 3,1 C 0,0 km/h (0 Bft)
05.03.2013 08:00 -1,2 C 8,0 C -2,1 C 3,4 C 3,4 C 4,6 C 81 % 88 % 100 % 1016,8 hPa 0,0 l/m 0,0 km/h (0 Bft) SW 225 5 min 0,0 UV-I -4,0 C 3,4 C 0,0 km/h (0 Bft)
05.03.2013 08:05 -1,3 C 8,0 C -2,0 C 2,7 C 2,7 C 4,0 C 81 % 88 % 100 % 1016,8 hPa 0,0 l/m 0,3 km/h (0 Bft) W-SW 247 5 min 0,0 UV-I -4,1 C 2,7 C 0,0 km/h (0 Bft)
05.03.2013 08:10 -1,2 C 8,0 C -1,7 C 3,2 C 3,2 C 4,4 C 81 % 88 % 100 % 1016,8 hPa 0,0 l/m 0,3 km/h (0 Bft) W-SW 247 5 min 0,0 UV-I -4,0 C 3,2 C 0,0 km/h (0 Bft)
05.03.2013 08:15 -1,1 C 8,0 C -1,3 C 2,9 C 2,9 C 4,0 C 81 % 88 % 100 % 1016,8 hPa 0,0 l/m 0,2 km/h (0 Bft) W-SW 247 5 min 0,0 UV-I -3,9 C 2,9 C 0,0 km/h (0 Bft)
05.03.2013 08:20 -0,9 C 8,0 C -1,1 C 2,9 C 2,9 C 3,8 C 81 % 88 % 100 % 1016,7 hPa 0,0 l/m 0,2 km/h (0 Bft) SW 225 5 min 0,0 UV-I -3,7 C 2,9 C 2,3 km/h (1 Bft)
05.03.2013 08:25 -0,7 C 8,0 C -0,8 C 2,9 C 2,9 C 3,6 C 80 % 88 % 95 % 1016,7 hPa 0,0 l/m 1,0 km/h (0 Bft) W-SW 247 5 min 0,0 UV-I -3,7 C 2,9 C 2,4 km/h (1 Bft)
05.03.2013 08:30 -0,5 C 8,0 C -0,7 C 3,2 C 3,2 C 3,7 C 80 % 87 % 97 % 1016,7 hPa 0,0 l/m 1,0 km/h (0 Bft) W-SW 247 5 min 0,0 UV-I -3,5 C 3,2 C 0,0 km/h (0 Bft)
05.03.2013 08:35 -0,1 C 8,0 C -0,3 C 3,5 C 3,5 C 3,6 C 80 % 87 % 95 % 1016,7 hPa 0,0 l/m 0,6 km/h (0 Bft) W-NW 292 5 min 0,0 UV-I -3,1 C 3,5 C 0,0 km/h (0 Bft)
05.03.2013 08:40 0,1 C 8,0 C -0,1 C 3,5 C 3,5 C 3,4 C 79 % 87 % 89 % 1016,8 hPa 0,0 l/m 0,3 km/h (0 Bft) NW 315 5 min 0,0 UV-I -3,1 C 3,5 C 0,0 km/h (0 Bft)
05.03.2013 08:45 0,4 C 8,0 C 0,3 C 3,3 C 3,3 C 2,9 C 78 % 86 % 76 % 1016,8 hPa 0,0 l/m 1,4 km/h (1 Bft) W 270 5 min 0,0 UV-I -3,0 C 3,3 C 3,5 km/h (1 Bft)
05.03.2013 08:50 0,7 C 7,9 C 0,4 C 3,0 C 3,0 C 2,3 C 78 % 86 % 61 % 1016,8 hPa 0,0 l/m 1,4 km/h (1 Bft) W-SW 247 0 min 0,0 UV-I -2,7 C 3,0 C 2,1 km/h (1 Bft)
05.03.2013 08:55 0,8 C 7,9 C 0,9 C 2,9 C 2,9 C 2,1 C 78 % 86 % 55 % 1016,8 hPa 0,0 l/m 1,3 km/h (1 Bft) W-NW 292 0 min 0,0 UV-I -2,6 C 2,9 C 0,0 km/h (0 Bft)
05.03.2013 09:00 1,0 C 7,9 C 1,6 C 3,6 C 3,6 C 2,6 C 78 % 86 % 68 % 1016,4 hPa 0,0 l/m 0,5 km/h (0 Bft) W-SW 247 0 min 0,1 UV-I -2,4 C 3,6 C 0,0 km/h (0 Bft)
05.03.2013 09:05 1,6 C 7,8 C 2,0 C 4,0 C 4,0 C 2,4 C 76 % 84 % 63 % 1016,4 hPa 0,0 l/m 0,6 km/h (0 Bft) S 180 0 min 0,1 UV-I -2,2 C 4,0 C 5,1 km/h (1 Bft)
05.03.2013 09:10 2,0 C 7,8 C 2,7 C 4,6 C 4,6 C 2,6 C 76 % 84 % 68 % 1016,4 hPa 0,0 l/m 1,4 km/h (1 Bft) SW 225 0 min 0,1 UV-I -1,8 C 4,6 C 4,7 km/h (1 Bft)
05.03.2013 09:15 2,2 C 7,8 C 3,2 C 4,8 C 4,8 C 2,6 C 74 % 83 % 68 % 1016,4 hPa 0,0 l/m 1,6 km/h (1 Bft) W 270 0 min 0,1 UV-I -1,9 C 4,8 C 5,8 km/h (2 Bft)
05.03.2013 09:20 2,6 C 7,8 C 3,6 C 5,2 C 5,2 C 2,6 C 75 % 81 % 68 % 1016,8 hPa 0,0 l/m 1,4 km/h (1 Bft) O-NO 67 0 min 0,2 UV-I -1,4 C 5,2 C 4,5 km/h (1 Bft)
05.03.2013 09:25 3,3 C 7,8 C 4,7 C 5,6 C 5,6 C 2,3 C 71 % 79 % 61 % 1016,8 hPa 0,0 l/m 2,4 km/h (1 Bft) SO 135 0 min 0,2 UV-I -1,4 C 5,6 C 7,1 km/h (2 Bft)
05.03.2013 09:30 3,6 C 7,8 C 5,7 C 6,2 C 6,2 C 2,6 C 71 % 76 % 68 % 1016,8 hPa 0,0 l/m 2,7 km/h (1 Bft) O-SO 112 0 min 0,2 UV-I -1,2 C 6,2 C 3,9 km/h (1 Bft)
05.03.2013 09:35 4,1 C 7,9 C 7,3 C 7,1 C 7,1 C 3,0 C 68 % 72 % 79 % 1016,8 hPa 0,0 l/m 2,6 km/h (1 Bft) O-NO 67 0 min 0,2 UV-I -1,3 C 7,1 C 1,9 km/h (1 Bft)
05.03.2013 09:40 4,3 C 7,9 C 7,5 C 8,1 C 8,1 C 3,8 C 66 % 68 % 100 % 1016,1 hPa 0,0 l/m 4,5 km/h (1 Bft) O-NO 67 5 min 0,3 UV-I -1,5 C 8,1 C 6,4 km/h (2 Bft)
05.03.2013 09:45 4,5 C 7,9 C 6,0 C 6,9 C 6,9 C 2,4 C 66 % 68 % 63 % 1016,1 hPa 0,0 l/m 4,7 km/h (1 Bft) O-NO 67 0 min 0,4 UV-I -1,3 C 6,3 C 8,9 km/h (2 Bft)
05.03.2013 09:50 4,7 C 7,9 C 5,4 C 7,4 C 7,4 C 2,7 C 65 % 69 % 71 % 1016,1 hPa 0,0 l/m 4,0 km/h (1 Bft) O-NO 67 0 min 0,4 UV-I -1,3 C 7,4 C 8,4 km/h (2 Bft)
05.03.2013 09:55 4,9 C 7,9 C 5,1 C 8,2 C 8,2 C 3,3 C 65 % 70 % 87 % 1016,1 hPa 0,0 l/m 3,9 km/h (1 Bft) O-NO 67 5 min 0,4 UV-I -1,1 C 8,2 C 4,5 km/h (1 Bft)
05.03.2013 10:00 5,1 C 7,9 C 5,1 C 7,5 C 7,5 C 2,4 C 65 % 70 % 63 % 1015,8 hPa 0,0 l/m 4,0 km/h (1 Bft) O 90 0 min 0,4 UV-I -0,9 C 7,5 C 3,4 km/h (1 Bft)
05.03.2013 10:05 5,4 C 7,9 C 5,1 C 9,0 C 9,0 C 3,6 C 63 % 71 % 95 % 1015,8 hPa 0,0 l/m 3,7 km/h (1 Bft) SO 135 5 min 0,5 UV-I -1,1 C 9,0 C 2,9 km/h (1 Bft)
05.03.2013 10:10 5,4 C 7,9 C 5,1 C 8,7 C 8,7 C 3,3 C 63 % 70 % 87 % 1015,8 hPa 0,0 l/m 3,7 km/h (1 Bft) S-SO 157 5 min 0,5 UV-I -1,1 C 8,7 C 10,0 km/h (2 Bft)
05.03.2013 10:15 5,5 C 7,9 C 4,9 C 8,4 C 8,4 C 2,9 C 62 % 71 % 76 % 1015,8 hPa 0,0 l/m 3,7 km/h (1 Bft) N-NO 22 0 min 0,6 UV-I -1,2 C 8,4 C 4,5 km/h (1 Bft)
05.03.2013 10:20 5,6 C 7,9 C 4,8 C 8,7 C 8,7 C 3,1 C 63 % 71 % 82 % 1015,8 hPa 0,0 l/m 3,2 km/h (1 Bft) O-SO 112 0 min 0,6 UV-I -0,9 C 8,7 C 2,9 km/h (1 Bft)
05.03.2013 10:25 5,8 C 7,9 C 4,9 C 7,9 C 7,9 C 2,1 C 62 % 70 % 55 % 1015,8 hPa 0,0 l/m 3,2 km/h (1 Bft) O-SO 112 0 min 0,5 UV-I -0,9 C 7,9 C 4,3 km/h (1 Bft)
05.03.2013 10:30 6,1 C 7,9 C 5,1 C 7,6 C 7,6 C 1,5 C 61 % 70 % 39 % 1015,8 hPa 0,0 l/m 3,2 km/h (1 Bft) N-NO 22 0 min 0,5 UV-I -0,8 C 7,6 C 2,9 km/h (1 Bft)
05.03.2013 10:35 6,3 C 7,9 C 5,1 C 7,4 C 7,4 C 1,1 C 61 % 69 % 29 % 1015,8 hPa 0,0 l/m 3,4 km/h (1 Bft) SO 135 0 min 0,6 UV-I -0,7 C 7,4 C 3,1 km/h (1 Bft)
05.03.2013 10:40 6,6 C 7,9 C 5,2 C 8,0 C 8,0 C 1,4 C 60 % 69 % 37 % 1015,6 hPa 0,0 l/m 3,2 km/h (1 Bft) O-NO 67 0 min 0,7 UV-I -0,6 C 8,0 C 3,7 km/h (1 Bft)
05.03.2013 10:45 6,7 C 7,9 C 5,3 C 8,2 C 8,2 C 1,5 C 60 % 70 % 39 % 1015,6 hPa 0,0 l/m 3,4 km/h (1 Bft) O 90 0 min 0,8 UV-I -0,5 C 8,2 C 10,6 km/h (2 Bft)
05.03.2013 10:50 6,8 C 7,9 C 5,5 C 8,4 C 8,4 C 1,6 C 59 % 69 % 42 % 1015,6 hPa 0,0 l/m 3,1 km/h (1 Bft) O-SO 112 0 min 0,7 UV-I -0,6 C 8,4 C 2,3 km/h (1 Bft)
05.03.2013 10:55 7,0 C 7,9 C 5,6 C 8,7 C 8,7 C 1,7 C 59 % 68 % 45 % 1015,6 hPa 0,0 l/m 3,1 km/h (1 Bft) O 90 0 min 0,7 UV-I -0,5 C 8,7 C 3,1 km/h (1 Bft)
05.03.2013 11:00 7,1 C 7,9 C 5,7 C 9,2 C 9,2 C 2,1 C 59 % 69 % 55 % 1015,2 hPa 0,0 l/m 3,1 km/h (1 Bft) O-NO 67 0 min 0,8 UV-I -0,4 C 9,2 C 2,7 km/h (1 Bft)
05.03.2013 11:05 7,1 C 7,9 C 5,7 C 9,5 C 9,5 C 2,4 C 59 % 69 % 63 % 1015,2 hPa 0,0 l/m 3,4 km/h (1 Bft) SO 135 0 min 0,8 UV-I -0,4 C 9,5 C 2,4 km/h (1 Bft)
05.03.2013 11:10 7,2 C 7,9 C 5,9 C 10,0 C 10,0 C 2,8 C 58 % 68 % 74 % 1015,2 hPa 0,0 l/m 2,9 km/h (1 Bft) SO 135 0 min 1,1 UV-I -0,5 C 10,0 C 4,3 km/h (1 Bft)
05.03.2013 11:15 7,5 C 7,9 C 6,0 C 10,6 C 10,6 C 3,1 C 57 % 67 % 82 % 1015,2 hPa 0,0 l/m 2,6 km/h (1 Bft) SO 135 0 min 1,1 UV-I -0,5 C 10,6 C 6,3 km/h (2 Bft)
05.03.2013 11:20 7,6 C 7,9 C 6,3 C 10,6 C 10,6 C 3,0 C 57 % 65 % 79 % 1015,4 hPa 0,0 l/m 2,7 km/h (1 Bft) O-NO 67 0 min 1,0 UV-I -0,4 C 10,6 C 5,5 km/h (1 Bft)
05.03.2013 11:25 7,7 C 7,9 C 6,4 C 10,4 C 10,4 C 2,7 C 56 % 64 % 71 % 1015,4 hPa 0,0 l/m 2,6 km/h (1 Bft) O-SO 112 0 min 0,9 UV-I -0,5 C 10,4 C 2,1 km/h (1 Bft)
05.03.2013 11:30 7,7 C 7,9 C 6,4 C 10,4 C 10,4 C 2,7 C 56 % 65 % 71 % 1015,4 hPa 0,0 l/m 3,2 km/h (1 Bft) O-NO 67 0 min 0,9 UV-I -0,5 C 10,4 C 4,7 km/h (1 Bft)
05.03.2013 11:35 7,8 C 7,9 C 6,5 C 11,1 C 11,1 C 3,3 C 56 % 65 % 87 % 1015,4 hPa 0,0 l/m 3,4 km/h (1 Bft) O 90 5 min 1,0 UV-I -0,4 C 11,1 C 4,7 km/h (1 Bft)
05.03.2013 11:40 8,1 C 7,9 C 6,4 C 12,1 C 12,1 C 4,0 C 57 % 66 % 100 % 1015,4 hPa 0,0 l/m 2,9 km/h (1 Bft) O-SO 112 5 min 1,0 UV-I 0,1 C 12,1 C 2,9 km/h (1 Bft)
05.03.2013 11:45 8,1 C 7,9 C 6,4 C 13,0 C 13,0 C 4,9 C 55 % 66 % 100 % 1015,4 hPa 0,0 l/m 2,6 km/h (1 Bft) NO 45 5 min 1,0 UV-I -0,4 C 13,0 C 3,9 km/h (1 Bft)
05.03.2013 11:50 8,1 C 7,9 C 6,5 C 13,1 C 13,1 C 5,0 C 55 % 66 % 100 % 1015,4 hPa 0,0 l/m 3,1 km/h (1 Bft) S-SO 157 5 min 1,0 UV-I -0,4 C 13,1 C 5,0 km/h (1 Bft)
05.03.2013 11:55 8,3 C 7,9 C 6,8 C 13,7 C 13,7 C 5,4 C 55 % 64 % 100 % 1015,4 hPa 0,0 l/m 3,5 km/h (1 Bft) O 90 5 min 1,1 UV-I -0,2 C 13,7 C 6,9 km/h (2 Bft)
05.03.2013 12:00 8,4 C 7,9 C 6,8 C 14,5 C 14,5 C 6,1 C 55 % 64 % 100 % 1015,4 hPa 0,0 l/m 2,9 km/h (1 Bft) SO 135 5 min 1,3 UV-I -0,1 C 14,5 C 2,9 km/h (1 Bft)
05.03.2013 12:05 8,7 C 7,9 C 7,0 C 15,0 C 15,0 C 6,3 C 54 % 64 % 100 % 1015,4 hPa 0,0 l/m 2,4 km/h (1 Bft) N-NW 337 5 min 1,5 UV-I -0,1 C 15,0 C 1,9 km/h (1 Bft)
05.03.2013 12:10 8,7 C 7,9 C 6,9 C 15,1 C 15,1 C 6,4 C 54 % 64 % 100 % 1015,4 hPa 0,0 l/m 2,7 km/h (1 Bft) O-SO 112 5 min 1,5 UV-I -0,1 C 15,1 C 2,4 km/h (1 Bft)
05.03.2013 12:15 8,8 C 7,9 C 7,0 C 15,2 C 15,2 C 6,4 C 55 % 64 % 100 % 1015,4 hPa 0,0 l/m 3,1 km/h (1 Bft) N-NO 22 5 min 1,7 UV-I 0,3 C 15,2 C 2,4 km/h (1 Bft)
05.03.2013 12:20 9,1 C 7,9 C 7,1 C 15,8 C 15,8 C 6,7 C 54 % 65 % 100 % 1015,4 hPa 0,0 l/m 2,3 km/h (1 Bft) SO 135 5 min 1,7 UV-I 0,3 C 15,8 C 2,4 km/h (1 Bft)
05.03.2013 12:25 9,0 C 7,9 C 7,2 C 15,7 C 15,7 C 6,7 C 54 % 65 % 100 % 1015,4 hPa 0,0 l/m 2,6 km/h (1 Bft) O 90 5 min 1,7 UV-I 0,2 C 15,7 C 2,3 km/h (1 Bft)
05.03.2013 12:30 9,1 C 7,9 C 7,2 C 15,9 C 15,9 C 6,8 C 54 % 64 % 100 % 1015,4 hPa 0,0 l/m 2,7 km/h (1 Bft) O-NO 67 5 min 1,7 UV-I 0,3 C 15,9 C 6,1 km/h (2 Bft)
05.03.2013 12:35 9,2 C 7,9 C 7,3 C 15,9 C 15,9 C 6,7 C 53 % 63 % 100 % 1015,4 hPa 0,0 l/m 3,1 km/h (1 Bft) O-SO 112 5 min 1,7 UV-I 0,1 C 15,9 C 3,4 km/h (1 Bft)
05.03.2013 12:46 8,9 C 7,9 C 7,4 C 15,1 C 15,1 C 6,2 C 53 % 64 % 100 % 1015,4 hPa 0,0 l/m 4,3 km/h (1 Bft) N 0 11 min 1,5 UV-I -0,1 C 15,1 C 9,3 km/h (2 Bft)
05.03.2013 13:00 8,8 C 7,9 C 7,5 C 14,2 C 14,2 C 5,4 C 56 % 65 % 100 % 1015,1 hPa 0,0 l/m 5,6 km/h (1 Bft) O-NO 67 14 min 1,5 UV-I 0,5 C 14,2 C 11,7 km/h (2 Bft)
05.03.2013 13:05 8,8 C 7,9 C 7,6 C 14,1 C 14,1 C 5,3 C 54 % 64 % 100 % 1015,1 hPa 0,0 l/m 5,1 km/h (1 Bft) O-SO 112 5 min 1,6 UV-I 0,0 C 14,1 C 4,3 km/h (1 Bft)
05.03.2013 13:10 8,8 C 7,9 C 7,9 C 14,1 C 14,1 C 5,3 C 54 % 64 % 100 % 1015,1 hPa 0,0 l/m 5,1 km/h (1 Bft) O-SO 112 5 min 1,4 UV-I 0,0 C 14,1 C 4,5 km/h (1 Bft)
05.03.2013 13:15 8,9 C 7,9 C 8,9 C 14,1 C 14,1 C 5,2 C 54 % 62 % 100 % 1015,1 hPa 0,0 l/m 4,7 km/h (1 Bft) O-NO 67 5 min 1,3 UV-I 0,1 C 14,1 C 6,0 km/h (2 Bft)
05.03.2013 13:20 8,8 C 7,9 C 9,1 C 14,0 C 14,0 C 5,2 C 54 % 60 % 100 % 1014,5 hPa 0,0 l/m 5,3 km/h (1 Bft) O-NO 67 5 min 1,2 UV-I 0,0 C 14,0 C 6,1 km/h (2 Bft)
05.03.2013 13:25 8,8 C 7,9 C 8,7 C 13,7 C 13,7 C 4,9 C 54 % 60 % 100 % 1014,5 hPa 0,0 l/m 6,3 km/h (2 Bft) O-NO 67 5 min 1,1 UV-I 0,0 C 13,7 C 7,1 km/h (2 Bft)
05.03.2013 13:30 8,8 C 7,9 C 8,4 C 13,6 C 13,6 C 4,8 C 54 % 62 % 100 % 1014,5 hPa 0,0 l/m 6,3 km/h (2 Bft) NO 45 5 min 1,1 UV-I 0,0 C 13,6 C 8,2 km/h (2 Bft)
05.03.2013 13:35 8,9 C 7,9 C 8,3 C 13,7 C 13,7 C 4,8 C 55 % 62 % 100 % 1014,5 hPa 0,0 l/m 6,0 km/h (2 Bft) O 90 5 min 1,1 UV-I 0,4 C 13,7 C 7,6 km/h (2 Bft)
05.03.2013 13:40 9,1 C 7,9 C 8,4 C 14,0 C 14,0 C 4,9 C 55 % 61 % 100 % 1014,0 hPa 0,0 l/m 5,1 km/h (1 Bft) O-NO 67 5 min 1,0 UV-I 0,5 C 14,0 C 11,9 km/h (2 Bft)
05.03.2013 13:45 9,1 C 7,9 C 8,4 C 14,1 C 14,1 C 5,0 C 55 % 63 % 100 % 1014,0 hPa 0,0 l/m 4,8 km/h (1 Bft) O-NO 67 5 min 1,0 UV-I 0,5 C 14,1 C 5,6 km/h (1 Bft)
05.03.2013 13:50 9,1 C 7,9 C 8,4 C 14,2 C 14,2 C 5,1 C 54 % 63 % 100 % 1014,0 hPa 0,0 l/m 5,1 km/h (1 Bft) N-NW 337 5 min 1,0 UV-I 0,3 C 14,2 C 4,2 km/h (1 Bft)
05.03.2013 13:55 9,1 C 7,9 C 8,3 C 14,3 C 14,3 C 5,2 C 54 % 63 % 100 % 1014,0 hPa 0,0 l/m 5,1 km/h (1 Bft) O 90 5 min 1,0 UV-I 0,3 C 14,3 C 8,0 km/h (2 Bft)
05.03.2013 14:00 9,0 C 7,9 C 8,3 C 14,0 C 14,0 C 5,0 C 55 % 63 % 100 % 1013,9 hPa 0,0 l/m 5,5 km/h (1 Bft) O-NO 67 5 min 0,9 UV-I 0,5 C 14,0 C 6,0 km/h (2 Bft)
05.03.2013 14:05 9,0 C 7,9 C 8,2 C 13,9 C 13,9 C 4,9 C 54 % 61 % 100 % 1013,9 hPa 0,0 l/m 5,8 km/h (2 Bft) O 90 5 min 0,8 UV-I 0,2 C 13,9 C 6,6 km/h (2 Bft)
05.03.2013 14:10 9,1 C 7,9 C 8,3 C 13,6 C 13,6 C 4,5 C 53 % 61 % 100 % 1013,9 hPa 0,0 l/m 6,6 km/h (2 Bft) O 90 5 min 0,8 UV-I 0,0 C 13,6 C 11,7 km/h (2 Bft)
05.03.2013 14:15 8,9 C 7,9 C 8,2 C 13,1 C 13,1 C 4,2 C 53 % 62 % 100 % 1013,9 hPa 0,0 l/m 7,1 km/h (2 Bft) O-SO 112 5 min 0,7 UV-I -0,1 C 13,1 C 14,0 km/h (3 Bft)
05.03.2013 14:20 8,9 C 7,9 C 8,1 C 12,9 C 12,9 C 4,0 C 53 % 61 % 100 % 1013,6 hPa 0,0 l/m 7,4 km/h (2 Bft) SO 135 5 min 0,7 UV-I -0,1 C 12,9 C 8,9 km/h (2 Bft)
05.03.2013 14:25 9,0 C 7,9 C 8,3 C 13,1 C 13,1 C 4,1 C 53 % 59 % 100 % 1013,6 hPa 0,0 l/m 6,9 km/h (2 Bft) O-SO 112 5 min 0,7 UV-I -0,1 C 13,1 C 14,2 km/h (3 Bft)
05.03.2013 14:30 9,1 C 7,9 C 8,2 C 13,2 C 13,2 C 4,1 C 53 % 60 % 100 % 1013,6 hPa 0,0 l/m 6,6 km/h (2 Bft) O-SO 112 5 min 0,7 UV-I 0,0 C 13,2 C 6,0 km/h (2 Bft)
05.03.2013 14:35 9,1 C 7,9 C 8,2 C 13,5 C 13,5 C 4,4 C 53 % 61 % 100 % 1013,6 hPa 0,0 l/m 6,0 km/h (2 Bft) O-NO 67 5 min 0,6 UV-I 0,0 C 13,5 C 6,1 km/h (2 Bft)
05.03.2013 14:40 9,2 C 7,9 C 8,3 C 13,7 C 13,7 C 4,5 C 53 % 59 % 100 % 1014,0 hPa 0,0 l/m 5,1 km/h (1 Bft) O-SO 112 5 min 0,6 UV-I 0,1 C 13,7 C 4,3 km/h (1 Bft)
05.03.2013 14:45 9,2 C 7,9 C 8,4 C 14,0 C 14,0 C 4,8 C 53 % 59 % 100 % 1014,0 hPa 0,0 l/m 4,8 km/h (1 Bft) SO 135 5 min 0,5 UV-I 0,1 C 14,0 C 14,6 km/h (3 Bft)
05.03.2013 14:50 9,4 C 7,9 C 8,4 C 14,6 C 14,6 C 5,2 C 53 % 60 % 100 % 1014,0 hPa 0,0 l/m 3,9 km/h (1 Bft) O 90 5 min 0,5 UV-I 0,3 C 14,6 C 7,7 km/h (2 Bft)
05.03.2013 14:55 9,5 C 7,9 C 8,5 C 14,8 C 14,8 C 5,3 C 52 % 60 % 100 % 1014,0 hPa 0,0 l/m 3,4 km/h (1 Bft) O-SO 112 5 min 0,5 UV-I 0,1 C 14,8 C 4,3 km/h (1 Bft)
05.03.2013 15:00 9,6 C 8,9 C 8,6 C 14,8 C 14,8 C 5,2 C 53 % 61 % 100 % 1013,2 hPa 0,0 l/m 4,0 km/h (1 Bft) O 90 5 min 0,4 UV-I 0,5 C 14,8 C 5,8 km/h (2 Bft)
05.03.2013 15:05 9,6 C 9,0 C 8,5 C 14,4 C 14,4 C 4,8 C 52 % 61 % 100 % 1013,2 hPa 0,0 l/m 4,8 km/h (1 Bft) O-NO 67 5 min 0,4 UV-I 0,2 C 14,4 C 7,6 km/h (2 Bft)
05.03.2013 15:10 9,5 C 9,0 C 8,5 C 14,0 C 14,0 C 4,5 C 52 % 61 % 100 % 1013,2 hPa 0,0 l/m 6,1 km/h (2 Bft) O-NO 67 5 min 0,3 UV-I 0,1 C 14,0 C 6,8 km/h (2 Bft)
05.03.2013 15:15 9,4 C 9,0 C 8,4 C 13,6 C 13,6 C 4,2 C 52 % 61 % 100 % 1013,2 hPa 0,0 l/m 6,9 km/h (2 Bft) O-NO 67 5 min 0,3 UV-I 0,1 C 13,6 C 8,5 km/h (2 Bft)
05.03.2013 15:20 9,5 C 9,0 C 8,5 C 13,4 C 13,4 C 3,9 C 52 % 61 % 100 % 1012,9 hPa 0,0 l/m 6,1 km/h (2 Bft) O 90 5 min 0,3 UV-I 0,1 C 13,4 C 5,3 km/h (1 Bft)
05.03.2013 15:25 9,5 C 9,0 C 8,5 C 13,7 C 13,7 C 4,2 C 53 % 61 % 100 % 1012,9 hPa 0,0 l/m 4,2 km/h (1 Bft) O-SO 112 5 min 0,3 UV-I 0,4 C 13,7 C 6,1 km/h (2 Bft)
05.03.2013 15:30 9,4 C 9,0 C 8,5 C 13,8 C 13,8 C 4,4 C 53 % 61 % 100 % 1012,9 hPa 0,0 l/m 4,5 km/h (1 Bft) O 90 5 min 0,2 UV-I 0,3 C 13,8 C 8,4 km/h (2 Bft)
05.03.2013 15:35 9,5 C 9,1 C 8,4 C 13,7 C 13,7 C 4,2 C 53 % 62 % 100 % 1012,9 hPa 0,0 l/m 4,7 km/h (1 Bft) O-SO 112 5 min 0,2 UV-I 0,4 C 13,7 C 3,5 km/h (1 Bft)
05.03.2013 15:40 9,5 C 9,1 C 8,4 C 13,8 C 13,8 C 4,3 C 53 % 61 % 100 % 1012,9 hPa 0,0 l/m 4,3 km/h (1 Bft) O-SO 112 5 min 0,2 UV-I 0,4 C 13,8 C 8,9 km/h (2 Bft)
05.03.2013 15:45 9,5 C 9,2 C 8,4 C 13,8 C 13,8 C 4,3 C 54 % 61 % 100 % 1012,9 hPa 0,0 l/m 3,9 km/h (1 Bft) O-SO 112 5 min 0,2 UV-I 0,7 C 13,8 C 4,7 km/h (1 Bft)
05.03.2013 15:50 9,6 C 9,2 C 8,4 C 14,1 C 14,1 C 4,5 C 54 % 61 % 100 % 1012,9 hPa 0,0 l/m 3,2 km/h (1 Bft) O 90 5 min 0,1 UV-I 0,8 C 14,1 C 2,9 km/h (1 Bft)
05.03.2013 15:55 9,6 C 9,3 C 8,4 C 14,2 C 14,2 C 4,6 C 53 % 62 % 100 % 1012,9 hPa 0,0 l/m 2,7 km/h (1 Bft) O 90 5 min 0,1 UV-I 0,5 C 14,2 C 3,4 km/h (1 Bft)
05.03.2013 16:00 9,6 C 9,3 C 8,4 C 14,5 C 14,5 C 4,9 C 53 % 62 % 100 % 1012,4 hPa 0,0 l/m 2,9 km/h (1 Bft) O 90 5 min 0,1 UV-I 0,5 C 14,5 C 3,9 km/h (1 Bft)
05.03.2013 16:05 9,6 C 9,3 C 8,3 C 14,7 C 14,7 C 5,1 C 54 % 63 % 100 % 1012,4 hPa 0,0 l/m 2,1 km/h (1 Bft) SO 135 5 min 0,0 UV-I 0,8 C 14,7 C 1,8 km/h (1 Bft)
05.03.2013 16:10 9,8 C 9,3 C 8,2 C 15,0 C 15,0 C 5,2 C 54 % 63 % 100 % 1012,4 hPa 0,0 l/m 1,3 km/h (1 Bft) N-NO 22 5 min 0,0 UV-I 0,9 C 15,0 C 0,0 km/h (0 Bft)
05.03.2013 16:15 9,9 C 9,3 C 8,1 C 15,3 C 15,3 C 5,4 C 54 % 64 % 100 % 1012,4 hPa 0,0 l/m 0,6 km/h (0 Bft) O-NO 67 5 min 0,0 UV-I 1,0 C 15,3 C 0,0 km/h (0 Bft)
05.03.2013 16:20 9,7 C 9,3 C 8,0 C 15,1 C 15,1 C 5,4 C 53 % 63 % 100 % 1012,8 hPa 0,0 l/m 1,4 km/h (1 Bft) O-NO 67 5 min 0,0 UV-I 0,6 C 15,1 C 4,5 km/h (1 Bft)
05.03.2013 16:25 9,6 C 9,3 C 7,9 C 14,5 C 14,5 C 4,9 C 54 % 64 % 100 % 1012,8 hPa 0,0 l/m 2,4 km/h (1 Bft) O 90 5 min 0,0 UV-I 0,8 C 14,5 C 0,0 km/h (0 Bft)
05.03.2013 16:30 9,5 C 9,3 C 7,7 C 14,4 C 14,4 C 4,9 C 54 % 64 % 100 % 1012,8 hPa 0,0 l/m 1,9 km/h (1 Bft) NO 45 5 min 0,0 UV-I 0,7 C 14,4 C 2,6 km/h (1 Bft)
05.03.2013 16:35 9,5 C 9,4 C 7,6 C 14,4 C 14,4 C 4,9 C 54 % 65 % 100 % 1012,8 hPa 0,0 l/m 1,3 km/h (1 Bft) O-NO 67 5 min 0,0 UV-I 0,7 C 14,4 C 2,6 km/h (1 Bft)
05.03.2013 16:40 9,5 C 9,4 C 7,5 C 14,2 C 14,2 C 4,7 C 54 % 65 % 100 % 1012,3 hPa 0,0 l/m 1,4 km/h (1 Bft) O-NO 67 5 min 0,0 UV-I 0,7 C 14,2 C 2,1 km/h (1 Bft)
05.03.2013 16:45 9,5 C 9,4 C 7,3 C 14,2 C 14,2 C 4,7 C 54 % 66 % 100 % 1012,3 hPa 0,0 l/m 0,5 km/h (0 Bft) S-SW 202 5 min 0,0 UV-I 0,7 C 14,2 C 0,0 km/h (0 Bft)
05.03.2013 16:50 9,6 C 9,4 C 7,5 C 14,3 C 14,3 C 4,7 C 54 % 68 % 100 % 1012,3 hPa 0,0 l/m 0,3 km/h (0 Bft) O-NO 67 5 min 0,0 UV-I 0,8 C 14,3 C 0,0 km/h (0 Bft)
05.03.2013 16:55 9,5 C 9,4 C 7,7 C 14,1 C 14,1 C 4,6 C 54 % 72 % 100 % 1012,3 hPa 0,0 l/m 0,5 km/h (0 Bft) O-SO 112 5 min 0,0 UV-I 0,7 C 14,1 C 0,0 km/h (0 Bft)
05.03.2013 17:00 9,5 C 9,4 C 8,0 C 13,8 C 13,8 C 4,3 C 55 % 72 % 100 % 1012,2 hPa 0,0 l/m 0,5 km/h (0 Bft) O 90 5 min 0,0 UV-I 0,9 C 13,8 C 0,0 km/h (0 Bft)
05.03.2013 17:05 9,2 C 9,4 C 8,1 C 13,4 C 13,4 C 4,2 C 55 % 72 % 100 % 1012,2 hPa 0,0 l/m 0,8 km/h (0 Bft) SW 225 5 min 0,0 UV-I 0,6 C 13,4 C 0,0 km/h (0 Bft)
05.03.2013 17:10 9,2 C 9,4 C 8,1 C 13,1 C 13,1 C 3,9 C 55 % 72 % 100 % 1012,2 hPa 0,0 l/m 0,6 km/h (0 Bft) NO 45 5 min 0,0 UV-I 0,6 C 13,1 C 0,0 km/h (0 Bft)
05.03.2013 17:15 9,2 C 9,4 C 7,7 C 13,0 C 13,0 C 3,8 C 55 % 71 % 100 % 1012,2 hPa 0,0 l/m 0,5 km/h (0 Bft) W 270 5 min 0,0 UV-I 0,6 C 13,0 C 0,0 km/h (0 Bft)
05.03.2013 17:20 9,1 C 9,4 C 7,5 C 12,8 C 12,8 C 3,7 C 54 % 71 % 97 % 1012,1 hPa 0,0 l/m 0,2 km/h (0 Bft) SO 135 5 min 0,0 UV-I 0,3 C 12,8 C 0,0 km/h (0 Bft)
05.03.2013 17:25 9,1 C 9,4 C 6,9 C 11,8 C 11,8 C 2,7 C 55 % 71 % 71 % 1012,1 hPa 0,0 l/m 0,5 km/h (0 Bft) W-SW 247 5 min 0,0 UV-I 0,5 C 11,8 C 0,0 km/h (0 Bft)
05.03.2013 17:30 8,9 C 9,4 C 6,8 C 11,3 C 11,3 C 2,4 C 55 % 70 % 63 % 1012,1 hPa 0,0 l/m 0,6 km/h (0 Bft) O-NO 67 5 min 0,0 UV-I 0,4 C 11,3 C 0,0 km/h (0 Bft)
05.03.2013 17:35 8,8 C 9,4 C 6,5 C 11,0 C 11,0 C 2,2 C 55 % 71 % 58 % 1012,1 hPa 0,0 l/m 0,5 km/h (0 Bft) S 180 5 min 0,0 UV-I 0,3 C 11,0 C 0,0 km/h (0 Bft)
05.03.2013 17:40 8,7 C 9,4 C 6,3 C 10,2 C 10,2 C 1,5 C 55 % 72 % 39 % 1012,2 hPa 0,0 l/m 0,0 km/h (0 Bft) W 270 5 min 0,0 UV-I 0,2 C 10,2 C 0,0 km/h (0 Bft)
05.03.2013 17:45 8,4 C 9,4 C 5,9 C 9,5 C 9,5 C 1,1 C 56 % 72 % 29 % 1012,2 hPa 0,0 l/m 0,0 km/h (0 Bft) N-NW 337 5 min 0,0 UV-I 0,1 C 9,5 C 0,0 km/h (0 Bft)
05.03.2013 17:50 8,3 C 9,4 C 5,6 C 9,0 C 9,0 C 0,7 C 56 % 73 % 0 % 1012,2 hPa 0,0 l/m 0,5 km/h (0 Bft) SO 135 0 min 0,0 UV-I 0,0 C 9,0 C 2,6 km/h (1 Bft)
05.03.2013 17:55 8,1 C 9,4 C 5,6 C 8,2 C 8,2 C 0,1 C 57 % 73 % 0 % 1012,2 hPa 0,0 l/m 0,8 km/h (0 Bft) O-NO 67 0 min 0,0 UV-I 0,1 C 8,2 C 1,8 km/h (1 Bft)
05.03.2013 18:00 7,9 C 9,5 C 5,5 C 7,7 C 7,3 C 0,0 C 57 % 73 % 0 % 1012,2 hPa 0,0 l/m 0,6 km/h (0 Bft) S-SO 157 0 min 0,0 UV-I -0,1 C 7,3 C 0,0 km/h (0 Bft)
05.03.2013 18:05 7,6 C 9,5 C 5,2 C 7,2 C 6,5 C 0,0 C 57 % 74 % 0 % 1012,2 hPa 0,0 l/m 0,6 km/h (0 Bft) NO 45 0 min 0,0 UV-I -0,4 C 6,5 C 0,0 km/h (0 Bft)
05.03.2013 18:10 7,3 C 9,5 C 5,1 C 6,9 C 6,2 C 0,0 C 58 % 74 % 0 % 1012,2 hPa 0,0 l/m 0,8 km/h (0 Bft) SO 135 0 min 0,0 UV-I -0,4 C 6,2 C 1,9 km/h (1 Bft)
05.03.2013 18:15 7,1 C 9,5 C 4,9 C 6,7 C 5,9 C 0,0 C 59 % 73 % 0 % 1012,2 hPa 0,0 l/m 1,0 km/h (0 Bft) S 180 0 min 0,0 UV-I -0,4 C 5,9 C 1,6 km/h (1 Bft)
05.03.2013 18:20 6,9 C 9,5 C 4,6 C 6,4 C 5,5 C 0,0 C 59 % 73 % 0 % 1012,2 hPa 0,0 l/m 0,8 km/h (0 Bft) W 270 0 min 0,0 UV-I -0,5 C 5,5 C 1,8 km/h (1 Bft)
05.03.2013 18:25 6,7 C 9,5 C 4,5 C 6,2 C 5,2 C 0,0 C 60 % 74 % 0 % 1012,2 hPa 0,0 l/m 0,6 km/h (0 Bft) SW 225 0 min 0,0 UV-I -0,5 C 5,2 C 4,0 km/h (1 Bft)
05.03.2013 18:30 6,7 C 9,5 C 4,4 C 6,1 C 5,0 C 0,0 C 60 % 74 % 0 % 1012,2 hPa 0,0 l/m 0,8 km/h (0 Bft) W-SW 247 0 min 0,0 UV-I -0,5 C 5,0 C 0,0 km/h (0 Bft)
05.03.2013 18:35 6,4 C 9,5 C 4,1 C 5,9 C 4,8 C 0,0 C 61 % 74 % 0 % 1012,2 hPa 0,0 l/m 0,6 km/h (0 Bft) S-SW 202 0 min 0,0 UV-I -0,6 C 4,8 C 0,0 km/h (0 Bft)
05.03.2013 18:46 6,1 C 9,5 C 3,9 C 5,5 C 4,4 C 0,0 C 62 % 75 % 0 % 1012,6 hPa 0,0 l/m 0,8 km/h (0 Bft) N 0 0 min 0,0 UV-I -0,6 C 4,4 C 0,0 km/h (0 Bft)
05.03.2013 18:55 6,0 C 9,5 C 3,6 C 5,4 C 4,3 C 0,0 C 63 % 76 % 0 % 1012,6 hPa 0,0 l/m 1,4 km/h (1 Bft) W-SW 247 0 min 0,0 UV-I -0,5 C 4,3 C 3,2 km/h (1 Bft)
05.03.2013 19:00 5,9 C 9,5 C 3,5 C 5,4 C 4,3 C 0,0 C 63 % 76 % 0 % 1012,6 hPa 0,0 l/m 1,9 km/h (1 Bft) W-SW 247 0 min 0,0 UV-I -0,6 C 4,3 C 2,7 km/h (1 Bft)
05.03.2013 19:05 5,7 C 9,5 C 3,3 C 5,2 C 4,2 C 0,0 C 63 % 76 % 0 % 1012,6 hPa 0,0 l/m 1,1 km/h (1 Bft) O-NO 67 0 min 0,0 UV-I -0,8 C 4,2 C 0,0 km/h (0 Bft)
05.03.2013 19:10 5,7 C 9,5 C 3,5 C 5,2 C 4,1 C 0,0 C 63 % 77 % 0 % 1012,6 hPa 0,0 l/m 1,0 km/h (0 Bft) SO 135 0 min 0,0 UV-I -0,8 C 4,1 C 0,0 km/h (0 Bft)
05.03.2013 19:15 5,5 C 9,5 C 3,1 C 5,0 C 4,1 C 0,0 C 63 % 76 % 0 % 1012,6 hPa 0,0 l/m 0,3 km/h (0 Bft) SW 225 0 min 0,0 UV-I -1,0 C 4,1 C 0,0 km/h (0 Bft)
05.03.2013 19:20 5,5 C 9,5 C 3,1 C 4,9 C 3,8 C 0,0 C 64 % 77 % 0 % 1012,4 hPa 0,0 l/m 0,8 km/h (0 Bft) S-SO 157 0 min 0,0 UV-I -0,8 C 3,8 C 3,7 km/h (1 Bft)
05.03.2013 19:25 5,5 C 9,5 C 3,2 C 5,0 C 3,9 C 0,0 C 64 % 77 % 0 % 1012,4 hPa 0,0 l/m 1,1 km/h (1 Bft) SW 225 0 min 0,0 UV-I -0,8 C 3,9 C 0,0 km/h (0 Bft)
05.03.2013 19:30 5,4 C 9,5 C 3,2 C 4,8 C 3,7 C 0,0 C 64 % 77 % 0 % 1012,4 hPa 0,0 l/m 0,8 km/h (0 Bft) SO 135 0 min 0,0 UV-I -0,9 C 3,7 C 0,0 km/h (0 Bft)
05.03.2013 19:35 5,2 C 9,5 C 3,1 C 4,6 C 3,5 C 0,0 C 65 % 77 % 0 % 1012,4 hPa 0,0 l/m 0,0 km/h (0 Bft) O-NO 67 0 min 0,0 UV-I -0,8 C 3,5 C 0,0 km/h (0 Bft)
05.03.2013 19:40 5,1 C 9,5 C 2,9 C 4,5 C 3,4 C 0,0 C 65 % 77 % 0 % 1012,3 hPa 0,0 l/m 1,0 km/h (0 Bft) SW 225 0 min 0,0 UV-I -0,9 C 3,4 C 2,7 km/h (1 Bft)
05.03.2013 19:45 5,0 C 9,5 C 2,7 C 4,5 C 3,4 C 0,0 C 65 % 78 % 0 % 1012,3 hPa 0,0 l/m 1,1 km/h (1 Bft) O-NO 67 0 min 0,0 UV-I -1,0 C 3,4 C 0,0 km/h (0 Bft)
05.03.2013 19:50 5,0 C 9,5 C 2,7 C 4,4 C 3,3 C 0,0 C 65 % 78 % 0 % 1012,3 hPa 0,0 l/m 0,6 km/h (0 Bft) W-SW 247 0 min 0,0 UV-I -1,0 C 3,3 C 0,0 km/h (0 Bft)
05.03.2013 19:55 4,8 C 9,5 C 2,5 C 4,2 C 3,0 C 0,0 C 65 % 78 % 0 % 1012,3 hPa 0,0 l/m 0,2 km/h (0 Bft) W-NW 292 0 min 0,0 UV-I -1,2 C 3,0 C 0,0 km/h (0 Bft)
05.03.2013 20:00 4,7 C 9,4 C 2,4 C 4,1 C 2,8 C 0,0 C 66 % 78 % 0 % 1012,2 hPa 0,0 l/m 0,3 km/h (0 Bft) S 180 0 min 0,0 UV-I -1,1 C 2,8 C 1,6 km/h (1 Bft)
05.03.2013 20:05 4,7 C 9,4 C 2,3 C 4,1 C 2,8 C 0,0 C 67 % 78 % 0 % 1012,2 hPa 0,0 l/m 0,5 km/h (0 Bft) N-NO 22 0 min 0,0 UV-I -0,9 C 2,8 C 0,0 km/h (0 Bft)
05.03.2013 20:10 4,5 C 9,4 C 2,3 C 3,9 C 2,8 C 0,0 C 67 % 79 % 0 % 1012,2 hPa 0,0 l/m 0,6 km/h (0 Bft) W-SW 247 0 min 0,0 UV-I -1,1 C 2,8 C 4,3 km/h (1 Bft)
05.03.2013 20:15 4,5 C 9,4 C 2,4 C 3,9 C 2,8 C 0,0 C 67 % 79 % 0 % 1012,2 hPa 0,0 l/m 0,8 km/h (0 Bft) W-SW 247 0 min 0,0 UV-I -1,1 C 2,8 C 3,4 km/h (1 Bft)
05.03.2013 20:20 4,5 C 9,4 C 2,3 C 3,9 C 2,8 C 0,0 C 67 % 79 % 0 % 1012,2 hPa 0,0 l/m 0,6 km/h (0 Bft) NO 45 0 min 0,0 UV-I -1,1 C 2,8 C 0,0 km/h (0 Bft)
05.03.2013 20:25 4,3 C 9,4 C 2,0 C 3,7 C 2,6 C 0,0 C 67 % 79 % 0 % 1012,2 hPa 0,0 l/m 0,0 km/h (0 Bft) O-NO 67 0 min 0,0 UV-I -1,3 C 2,6 C 0,0 km/h (0 Bft)
05.03.2013 20:30 4,1 C 9,4 C 1,9 C 3,5 C 2,3 C 0,0 C 67 % 79 % 0 % 1012,2 hPa 0,0 l/m 0,0 km/h (0 Bft) O-SO 112 0 min 0,0 UV-I -1,5 C 2,3 C 0,0 km/h (0 Bft)
05.03.2013 20:35 3,9 C 9,4 C 1,7 C 3,3 C 2,2 C 0,0 C 68 % 80 % 0 % 1012,2 hPa 0,0 l/m 0,0 km/h (0 Bft) SW 225 0 min 0,0 UV-I -1,5 C 2,2 C 0,0 km/h (0 Bft)
05.03.2013 20:40 3,9 C 9,4 C 1,6 C 3,3 C 2,0 C 0,0 C 69 % 80 % 0 % 1012,4 hPa 0,0 l/m 0,3 km/h (0 Bft) SW 225 0 min 0,0 UV-I -1,3 C 2,0 C 0,0 km/h (0 Bft)
05.03.2013 20:45 3,7 C 9,4 C 1,5 C 3,1 C 2,0 C 0,0 C 69 % 80 % 0 % 1012,4 hPa 0,0 l/m 0,3 km/h (0 Bft) W-SW 247 0 min 0,0 UV-I -1,4 C 2,0 C 0,0 km/h (0 Bft)
05.03.2013 20:50 3,7 C 9,4 C 1,4 C 3,1 C 1,9 C 0,0 C 69 % 80 % 0 % 1012,4 hPa 0,0 l/m 0,0 km/h (0 Bft) W-SW 247 0 min 0,0 UV-I -1,4 C 1,9 C 0,0 km/h (0 Bft)
05.03.2013 20:55 3,6 C 9,5 C 1,2 C 3,0 C 1,9 C 0,0 C 70 % 80 % 0 % 1012,4 hPa 0,0 l/m 0,0 km/h (0 Bft) S 180 0 min 0,0 UV-I -1,3 C 1,9 C 0,0 km/h (0 Bft)
05.03.2013 21:00 3,5 C 9,5 C 1,1 C 2,9 C 1,7 C 0,0 C 70 % 81 % 0 % 1011,9 hPa 0,0 l/m 0,0 km/h (0 Bft) S 180 0 min 0,0 UV-I -1,4 C 1,7 C 0,0 km/h (0 Bft)
05.03.2013 21:05 3,2 C 9,5 C 1,1 C 2,6 C 1,4 C 0,0 C 71 % 81 % 0 % 1011,9 hPa 0,0 l/m 0,0 km/h (0 Bft) W 270 0 min 0,0 UV-I -1,5 C 1,4 C 0,0 km/h (0 Bft)
05.03.2013 21:10 3,1 C 9,5 C 1,0 C 2,5 C 1,2 C 0,0 C 71 % 81 % 0 % 1011,9 hPa 0,0 l/m 0,0 km/h (0 Bft) W 270 0 min 0,0 UV-I -1,6 C 1,2 C 0,0 km/h (0 Bft)
05.03.2013 21:15 2,8 C 9,5 C 0,7 C 2,2 C 1,0 C 0,0 C 71 % 81 % 0 % 1011,9 hPa 0,0 l/m 0,0 km/h (0 Bft) W-SW 247 0 min 0,0 UV-I -1,9 C 1,0 C 0,0 km/h (0 Bft)
05.03.2013 21:20 2,7 C 9,5 C 0,6 C 2,1 C 0,8 C 0,0 C 72 % 82 % 0 % 1011,9 hPa 0,0 l/m 0,0 km/h (0 Bft) W-SW 247 0 min 0,0 UV-I -1,8 C 0,8 C 0,0 km/h (0 Bft)
05.03.2013 21:25 2,5 C 9,5 C 0,7 C 1,9 C 0,7 C 0,0 C 73 % 82 % 0 % 1011,9 hPa 0,0 l/m 0,0 km/h (0 Bft) W-SW 247 0 min 0,0 UV-I -1,8 C 0,7 C 0,0 km/h (0 Bft)
05.03.2013 21:30 2,5 C 9,5 C 0,6 C 1,9 C 0,8 C 0,0 C 73 % 82 % 0 % 1011,9 hPa 0,0 l/m 0,0 km/h (0 Bft) W-SW 247 0 min 0,0 UV-I -1,8 C 0,8 C 0,0 km/h (0 Bft)
05.03.2013 21:35 2,3 C 9,5 C 0,5 C 1,7 C 0,6 C 0,0 C 73 % 82 % 0 % 1011,9 hPa 0,0 l/m 0,0 km/h (0 Bft) W-SW 247 0 min 0,0 UV-I -2,0 C 0,6 C 0,0 km/h (0 Bft)
05.03.2013 21:40 2,1 C 9,5 C 0,3 C 1,5 C 0,4 C 0,0 C 74 % 82 % 0 % 1012,1 hPa 0,0 l/m 0,0 km/h (0 Bft) W-SW 247 0 min 0,0 UV-I -2,0 C 0,4 C 0,0 km/h (0 Bft)
05.03.2013 21:45 1,9 C 9,5 C 0,1 C 1,3 C 0,2 C 0,0 C 74 % 82 % 0 % 1012,1 hPa 0,0 l/m 0,0 km/h (0 Bft) W-SW 247 0 min 0,0 UV-I -2,2 C 0,2 C 0,0 km/h (0 Bft)
05.03.2013 21:50 1,7 C 9,5 C -0,2 C 1,2 C 0,1 C 0,0 C 74 % 83 % 0 % 1012,1 hPa 0,0 l/m 0,0 km/h (0 Bft) W-SW 247 0 min 0,0 UV-I -2,4 C 0,1 C 0,0 km/h (0 Bft)
05.03.2013 21:55 1,5 C 9,5 C -0,1 C 1,0 C -0,1 C 0,0 C 75 % 83 % 0 % 1012,1 hPa 0,0 l/m 0,0 km/h (0 Bft) S 180 0 min 0,0 UV-I -2,4 C -0,1 C 0,0 km/h (0 Bft)
05.03.2013 22:00 1,3 C 9,5 C -0,1 C 0,7 C -0,4 C 0,0 C 75 % 84 % 0 % 1012,4 hPa 0,0 l/m 0,0 km/h (0 Bft) W-SW 247 0 min 0,0 UV-I -2,6 C -0,4 C 0,0 km/h (0 Bft)
05.03.2013 22:05 1,2 C 9,5 C -0,1 C 0,6 C -0,6 C 0,0 C 76 % 84 % 0 % 1012,4 hPa 0,0 l/m 0,0 km/h (0 Bft) SO 135 0 min 0,0 UV-I -2,5 C -0,6 C 0,0 km/h (0 Bft)
05.03.2013 22:10 1,1 C 9,5 C -0,3 C 0,5 C -0,6 C 0,0 C 77 % 84 % 0 % 1012,4 hPa 0,0 l/m 0,0 km/h (0 Bft) SO 135 0 min 0,0 UV-I -2,5 C -0,6 C 0,0 km/h (0 Bft)
05.03.2013 22:15 0,8 C 9,5 C -0,5 C 0,3 C -0,7 C 0,0 C 77 % 84 % 0 % 1012,4 hPa 0,0 l/m 0,0 km/h (0 Bft) SW 225 0 min 0,0 UV-I -2,8 C -0,7 C 0,0 km/h (0 Bft)
05.03.2013 22:20 0,8 C 9,5 C -0,5 C 0,3 C -0,8 C 0,0 C 77 % 84 % 0 % 1012,4 hPa 0,0 l/m 0,0 km/h (0 Bft) S 180 0 min 0,0 UV-I -2,8 C -0,8 C 0,0 km/h (0 Bft)
05.03.2013 22:25 0,7 C 9,5 C -0,7 C 0,2 C -0,8 C 0,0 C 78 % 84 % 0 % 1012,4 hPa 0,0 l/m 0,0 km/h (0 Bft) O 90 0 min 0,0 UV-I -2,7 C -0,8 C 0,0 km/h (0 Bft)
05.03.2013 22:30 0,5 C 9,5 C -0,8 C 0,0 C -0,9 C 0,0 C 78 % 85 % 0 % 1012,4 hPa 0,0 l/m 0,0 km/h (0 Bft) O 90 0 min 0,0 UV-I -2,9 C -0,9 C 0,0 km/h (0 Bft)
05.03.2013 22:35 0,4 C 9,5 C -0,9 C -0,1 C -1,2 C 0,0 C 78 % 85 % 0 % 1012,4 hPa 0,0 l/m 0,0 km/h (0 Bft) S-SO 157 0 min 0,0 UV-I -3,0 C -1,2 C 0,0 km/h (0 Bft)
05.03.2013 22:40 0,3 C 9,5 C -1,0 C -0,3 C -1,5 C 0,0 C 79 % 85 % 0 % 1011,6 hPa 0,0 l/m 0,0 km/h (0 Bft) O-SO 112 0 min 0,0 UV-I -2,9 C -1,5 C 0,0 km/h (0 Bft)
05.03.2013 22:45 0,1 C 9,5 C -1,1 C -0,5 C -1,7 C 0,0 C 79 % 85 % 0 % 1011,6 hPa 0,0 l/m 0,0 km/h (0 Bft) SO 135 0 min 0,0 UV-I -3,1 C -1,7 C 0,0 km/h (0 Bft)
05.03.2013 22:50 -0,1 C 9,5 C -1,1 C -0,7 C -1,8 C 0,0 C 79 % 86 % 0 % 1011,6 hPa 0,0 l/m 0,0 km/h (0 Bft) SO 135 0 min 0,0 UV-I -3,3 C -1,8 C 0,0 km/h (0 Bft)
05.03.2013 22:55 -0,1 C 9,5 C -1,1 C -0,8 C -2,1 C 0,0 C 79 % 86 % 0 % 1011,6 hPa 0,0 l/m 0,0 km/h (0 Bft) S-SO 157 0 min 0,0 UV-I -3,3 C -2,1 C 0,0 km/h (0 Bft)
05.03.2013 23:00 -0,4 C 9,5 C -1,3 C -1,0 C -2,2 C 0,0 C 80 % 86 % 0 % 1011,8 hPa 0,0 l/m 0,0 km/h (0 Bft) S-SO 157 0 min 0,0 UV-I -3,4 C -2,2 C 0,0 km/h (0 Bft)
05.03.2013 23:05 -0,5 C 9,7 C -1,3 C -1,1 C -2,4 C 0,0 C 80 % 86 % 0 % 1011,8 hPa 0,0 l/m 0,0 km/h (0 Bft) S-SO 157 0 min 0,0 UV-I -3,5 C -2,4 C 0,0 km/h (0 Bft)
05.03.2013 23:10 -0,7 C 9,7 C -1,3 C -1,3 C -2,5 C 0,0 C 80 % 86 % 0 % 1011,8 hPa 0,0 l/m 0,0 km/h (0 Bft) S-SO 157 0 min 0,0 UV-I -3,7 C -2,5 C 0,0 km/h (0 Bft)
05.03.2013 23:15 -0,8 C 9,7 C -1,6 C -1,4 C -2,5 C 0,0 C 80 % 86 % 0 % 1011,8 hPa 0,0 l/m 0,0 km/h (0 Bft) S-SO 157 0 min 0,0 UV-I -3,8 C -2,5 C 0,0 km/h (0 Bft)
05.03.2013 23:20 -0,9 C 9,7 C -1,7 C -1,4 C -2,5 C 0,0 C 81 % 86 % 0 % 1011,9 hPa 0,0 l/m 0,0 km/h (0 Bft) S-SO 157 0 min 0,0 UV-I -3,7 C -2,5 C 0,0 km/h (0 Bft)
05.03.2013 23:25 -0,9 C 9,7 C -1,7 C -1,5 C -2,6 C 0,0 C 81 % 86 % 0 % 1011,9 hPa 0,0 l/m 0,0 km/h (0 Bft) S-SO 157 0 min 0,0 UV-I -3,7 C -2,6 C 0,0 km/h (0 Bft)
05.03.2013 23:30 -1,1 C 9,7 C -1,7 C -1,7 C -2,8 C 0,0 C 81 % 86 % 0 % 1011,9 hPa 0,0 l/m 0,0 km/h (0 Bft) S-SO 157 0 min 0,0 UV-I -3,9 C -2,8 C 0,0 km/h (0 Bft)
05.03.2013 23:35 -1,3 C 9,7 C -1,7 C -1,8 C -2,8 C 0,0 C 82 % 87 % 0 % 1011,9 hPa 0,0 l/m 0,0 km/h (0 Bft) S-SO 157 0 min 0,0 UV-I -4,0 C -2,8 C 0,0 km/h (0 Bft)
05.03.2013 23:40 -1,3 C 9,7 C -1,9 C -1,8 C -2,9 C 0,0 C 82 % 87 % 0 % 1011,6 hPa 0,0 l/m 0,0 km/h (0 Bft) S-SO 157 0 min 0,0 UV-I -4,0 C -2,9 C 0,0 km/h (0 Bft)
05.03.2013 23:45 -1,5 C 9,7 C -1,9 C -2,0 C -2,9 C 0,0 C 82 % 87 % 0 % 1011,6 hPa 0,0 l/m 0,0 km/h (0 Bft) SO 135 0 min 0,0 UV-I -4,2 C -2,9 C 0,0 km/h (0 Bft)
05.03.2013 23:50 -1,3 C 9,7 C -2,1 C -1,8 C -2,9 C 0,0 C 83 % 87 % 0 % 1011,6 hPa 0,0 l/m 0,0 km/h (0 Bft) O-SO 112 0 min 0,0 UV-I -3,8 C -2,9 C 0,0 km/h (0 Bft)
05.03.2013 23:55 -1,3 C 9,7 C -1,9 C -1,8 C -2,7 C 0,0 C 84 % 87 % 0 % 1011,6 hPa 0,0 l/m 0,0 km/h (0 Bft) W-NW 292 0 min 0,0 UV-I -3,6 C -2,7 C 1,8 km/h (1 Bft)
_ Min-Zeit 01:10 09:05 02:40 00:35 00:35 00:00 14:55 14:25 00:00 22:40 - 00:00 - - - 00:00 01:10 00:35 00:00
Minimum _ -2,9 C 7,8 C -3,0 C -3,0 C -3,6 C 0,0 C 52 % 59 % 0 % 1011,6 hPa - 0,0 km/h (0 Bft) - - - 0,0 UV-I -4,9 C -3,6 C 0,0 km/h (0 Bft)
_ Max-Zeit 16:15 23:05 13:20 12:30 12:30 12:30 01:00 01:00 07:50 00:41 00:00 14:20 - - 13:00 12:15 16:15 12:30 14:45
Maximum _ 9,9 C 9,7 C 9,1 C 15,9 C 15,9 C 6,8 C 86 % 89 % 100 % 1020,5 hPa 0,0 l/m 7,4 km/h
SO (2 Bft)
- - 14 min 1,7 UV-I 1,0 C 15,9 C 14,6 km/h
SO (3 Bft)
Durchschnitt _ 3,1 C 8,7 C 2,0 C 4,7 C 4,3 C 1,8 C 70 % 78 % 38 % 1015,2 hPa #0,0 l/m 1,4 km/h (1 Bft) O-NO - #8:10 h 0,8 UV-I -2,1 C 4,3 C 2,1 km/h (1 Bft)
2013 www.wetterstation-wechselburg.de